Dewpoint
65 65 64 63 62 62 62 62 63 62 63 62 62 61 60 60 61 60 60 60 60 58
64 63 63 63 62 62 61 61 60 60 60 59 59 59 59 59 59 60 59 59 59 59
61 61 61 61 60 59 58 58 58 58 58 57 57 57 57 57 57 56 57 56 56 56
59 59 59 59 58 58 58 57 57 56 56 55 55 55 54 54 55 55 55 55 54 54
57 57 56 56 55 55 54 53 53 53 52 52 52 53 53 52 53 52 53 53 53 53
53 53 53 53 53 53 52 52 51 51 51 51 51 51 51 51 51 51 51 51 51 51
53 53 53 53 53 53 52 51 51 51 51 51 50 50 49 49 49 49 50 50 50 50
53 52 52 51 51 51 51 50 50 50 50 50 49 49 49 49 49 49 49 48 48 48
49 47 46 46 46 46 46 46 46 46 46 46 47 47 47 46 47 47 47 46 46 46
40 39 39 38 37 37 39 40 42 42 43 43 43 46 46 45 45 45 45 45 44 43
31 31 32 34 34 36 37 38 39 39 39 39 40 44 45 44 44 44 44 43 43 43
36 36 35 35 36 37 35 34 35 40 43 40 43 44 44 43 43 42 41 40 40 39
36 34 36 36 36 38 38 36 36 37 40 44 43 43 42 41 41 40 40 39 38 38
34 35 35 37 37 36 36 36 39 41 41 40 39 38 39 39 40 39 38 38 38 38
Wind_Speed
15 12 13 14 13 11 11 12 14 10 9 8 7 6 6 7 9 9 10 12 12 13
12 14 13 14 13 12 11 10 12 11 11 9 8 7 5 6 8 8 9 9 11 12
14 14 14 13 14 12 12 12 11 10 9 7 5 4 4 5 6 7 6 4 6 8
14 14 14 13 13 12 12 11 10 7 6 5 4 2 2 4 6 7 7 7 8 10
13 14 14 14 13 12 11 9 8 6 4 4 2 1 2 4 6 8 9 9 10 11
16 15 15 14 12 11 10 8 7 6 5 3 3 3 3 4 6 8 10 9 12 13
15 14 13 11 10 8 6 5 5 4 3 2 1 3 5 7 8 10 11 12 12 12
13 12 11 10 9 8 6 4 1 2 2 3 4 5 7 8 10 11 12 12 12 13
13 12 10 9 7 6 4 1 2 3 4 4 6 4 9 11 12 12 12 14 13 12
12 11 9 7 4 2 1 3 5 5 6 7 8 6 8 14 13 12 13 15 14 15
12 10 7 4 2 3 6 6 4 6 6 8 9 6 11 12 11 14 15 15 16 17
8 6 4 6 4 2 4 7 8 7 9 12 12 11 13 13 12 15 19 17 17 18
5 6 4 1 2 3 6 8 10 12 11 10 14 14 17 18 15 17 18 15 16 18
0 1 2 2 4 6 9 10 11 12 13 15 16 16 18 16 13 15 15 16 15 14
Wind_Direction
165 160 151 151 146 143 158 166 154 165 168 153 163 168 184 207 217 216 226 228 220 220
126 120 128 126 128 127 123 127 138 154 161 167 171 180 198 221 233 232 238 241 245 240
111 113 115 120 128 134 137 143 151 163 171 168 168 193 225 262 275 265 264 277 270 261
125 131 134 134 138 145 148 156 154 152 151 159 174 172 255 266 279 274 270 259 262 270
142 141 139 137 134 139 128 126 128 131 132 134 135 144 250 282 279 279 275 276 278 266
143 137 130 126 124 122 127 126 123 120 107 58 22 348 313 282 280 276 268 263 255 251
133 127 121 117 116 114 111 110 94 79 79 100 13 316 311 296 289 293 286 279 276 265
132 124 118 113 108 101 85 32 36 45 309 294 335 307 298 293 288 279 279 281 270 262
130 123 115 111 113 114 103 129 292 280 293 315 289 284 276 281 292 292 276 270 261 253
136 128 124 122 116 67 355 276 264 270 271 278 280 242 260 263 267 269 266 264 262 260
134 130 126 130 188 225 237 241 277 284 283 281 275 250 254 268 269 263 258 257 263 262
140 153 177 201 189 256 309 294 286 274 268 268 264 267 262 259 257 253 257 255 254 255
162 187 122 151 326 290 282 278 274 275 274 272 272 268 262 254 249 257 262 260 254 247
58 6 1 255 265 281 283 279 279 282 281 273 265 262 256 254 260 256 265 258 259 255